Hourly Weather Abrazheevka

Today, 6 December, Sunday

Time Temperature Precipitation Wind Pressure Humidity
00:00 -9°C° 0 mm 0 mps 760 mmHg 76%
01:00 -9°C° 0 mm 0 mps 760 mmHg 77%
02:00 -9°C° 0 mm 0 mps 760 mmHg 77%
03:00 -9°C° 0 mm 0 mps 760 mmHg 78%
04:00 -9°C° 0 mm 0 mps 759 mmHg 78%
05:00 -9°C° 0 mm 1 mps 759 mmHg 79%
06:00 -9°C° 0 mm 1 mps 759 mmHg 79%
07:00 -9°C° 0 mm 1 mps 759 mmHg 79%
08:00 -8°C° 0 mm 1 mps 759 mmHg 78%
09:00 -7°C° 0 mm 1 mps 759 mmHg 78%
10:00 -6°C° 0 mm 1 mps 759 mmHg 74%
11:00 -6°C° 0 mm 2 mps 758 mmHg 70%
12:00 -4°C° 0 mm 2 mps 758 mmHg 66%
13:00 -4°C° 0 mm 2 mps 757 mmHg 68%
14:00 -2°C° 0 mm 1 mps 757 mmHg 69%
15:00 -2°C° 0 mm 1 mps 756 mmHg 70%
16:00 -3°C° 0 mm 1 mps 756 mmHg 71%
17:00 -3°C° 0 mm 1 mps 756 mmHg 71%
18:00 -4°C° 0 mm 1 mps 756 mmHg 71%
19:00 -4°C° 0 mm 1 mps 756 mmHg 72%
20:00 -4°C° 0 mm 1 mps 756 mmHg 74%
21:00 -4°C° 0 mm 1 mps 756 mmHg 75%
22:00 -7°C° 0 mm 2 mps 756 mmHg 77%
23:00 -7°C° 0 mm 2 mps 756 mmHg 80%

Tomorrow, 7 December, Monday

Time Temperature Precipitation Wind Pressure Humidity
00:00 -8°C° 0 mm 2 mps 756 mmHg 83%
01:00 -8°C° 0 mm 2 mps 756 mmHg 83%
02:00 -9°C° 0 mm 2 mps 756 mmHg 84%
03:00 -8°C° 0 mm 1 mps 757 mmHg 85%
04:00 -10°C° 0 mm 2 mps 757 mmHg 84%
05:00 -10°C° 0 mm 2 mps 757 mmHg 83%
06:00 -12°C° 0 mm 2 mps 757 mmHg 83%
07:00 -12°C° 0 mm 2 mps 758 mmHg 81%
08:00 -12°C° 0 mm 2 mps 758 mmHg 79%
09:00 -12°C° 0 mm 2 mps 758 mmHg 77%
10:00 -10°C° 0 mm 2 mps 758 mmHg 73%
11:00 -9°C° 0 mm 2 mps 758 mmHg 70%
12:00 -8°C° 0 mm 2 mps 758 mmHg 66%
13:00 -7°C° 0 mm 2 mps 757 mmHg 67%
14:00 -7°C° 0 mm 2 mps 757 mmHg 68%
15:00 -7°C° 0 mm 2 mps 757 mmHg 69%
16:00 -8°C° 0 mm 2 mps 757 mmHg 72%
17:00 -9°C° 0 mm 2 mps 757 mmHg 75%
18:00 -10°C° 0 mm 2 mps 758 mmHg 78%
19:00 -12°C° 0 mm 2 mps 758 mmHg 79%
20:00 -12°C° 0 mm 2 mps 758 mmHg 79%
21:00 -12°C° 0 mm 2 mps 758 mmHg 80%
22:00 -11°C° 0 mm 1 mps 758 mmHg 79%
23:00 -11°C° 0 mm 1 mps 758 mmHg 79%

Day after tomorrow, 8 December, Tuesday

Time Temperature Precipitation Wind Pressure Humidity
00:00 -12°C° 0 mm 1 mps 759 mmHg 79%
01:00 -12°C° 0 mm 1 mps 759 mmHg 78%
02:00 -12°C° 0 mm 1 mps 759 mmHg 77%
03:00 -12°C° 0 mm 1 mps 759 mmHg 76%
04:00 -12°C° 0 mm 1 mps 759 mmHg 75%
05:00 -12°C° 0 mm 1 mps 759 mmHg 74%
06:00 -12°C° 0 mm 1 mps 759 mmHg 74%
07:00 -12°C° 0 mm 1 mps 759 mmHg 74%
08:00 -12°C° 0 mm 1 mps 760 mmHg 74%
09:00 -11°C° 0 mm 1 mps 760 mmHg 74%
10:00 -12°C° 0 mm 2 mps 760 mmHg 70%
11:00 -10°C° 0 mm 2 mps 760 mmHg 66%
12:00 -9°C° 0 mm 2 mps 759 mmHg 62%
13:00 -8°C° 0 mm 2 mps 759 mmHg 63%
14:00 -8°C° 0 mm 2 mps 759 mmHg 64%
15:00 -7°C° 0 mm 1 mps 759 mmHg 65%
16:00 -8°C° 0 mm 1 mps 759 mmHg 66%
17:00 -9°C° 0 mm 1 mps 759 mmHg 67%
18:00 -9°C° 0 mm 1 mps 759 mmHg 68%
19:00 -10°C° 0 mm 1 mps 759 mmHg 69%
20:00 -10°C° 0 mm 1 mps 759 mmHg 70%
21:00 -10°C° 0 mm 1 mps 759 mmHg 70%
22:00 -10°C° 0 mm 1 mps 759 mmHg 72%
23:00 -10°C° 0 mm 1 mps 758 mmHg 73%

9 December, Wednesday

Time Temperature Precipitation Wind Pressure Humidity
00:00 -10°C° 0 mm 1 mps 758 mmHg 74%
01:00 -10°C° 0 mm 1 mps 758 mmHg 74%
02:00 -11°C° 0 mm 1 mps 758 mmHg 74%
03:00 -11°C° 0 mm 1 mps 758 mmHg 74%
04:00 -11°C° 0 mm 1 mps 758 mmHg 73%
05:00 -11°C° 0 mm 1 mps 758 mmHg 73%
06:00 -11°C° 0 mm 1 mps 758 mmHg 72%
07:00 -10°C° 0 mm 1 mps 758 mmHg 71%
08:00 -10°C° 0 mm 1 mps 758 mmHg 69%
09:00 -9°C° 0 mm 1 mps 758 mmHg 68%
10:00 -8°C° 0 mm 1 mps 758 mmHg 64%
11:00 -7°C° 0 mm 2 mps 757 mmHg 61%
12:00 -6°C° 0 mm 2 mps 757 mmHg 57%
13:00 -6°C° 0 mm 2 mps 756 mmHg 60%
14:00 -3°C° 0 mm 1 mps 756 mmHg 63%
15:00 -3°C° 0 mm 1 mps 756 mmHg 65%
16:00 -4°C° 0 mm 1 mps 756 mmHg 65%
17:00 -6°C° 0 mm 1 mps 756 mmHg 64%
18:00 -7°C° 0 mm 1 mps 756 mmHg 64%
19:00 -7°C° 0 mm 1 mps 756 mmHg 64%
20:00 -8°C° 0 mm 2 mps 756 mmHg 64%
21:00 -8°C° 0 mm 2 mps 756 mmHg 64%
22:00 -8°C° 0 mm 2 mps 756 mmHg 66%
23:00 -8°C° 0 mm 2 mps 756 mmHg 68%

10 December, Thursday

Time Temperature Precipitation Wind Pressure Humidity
00:00 -9°C° 0 mm 2 mps 756 mmHg 69%
01:00 -9°C° 0 mm 2 mps 756 mmHg 69%
02:00 -9°C° 0 mm 2 mps 756 mmHg 69%
03:00 -9°C° 0 mm 2 mps 756 mmHg 69%
04:00 -9°C° 0 mm 2 mps 756 mmHg 69%
05:00 -9°C° 0 mm 2 mps 756 mmHg 68%
06:00 -8°C° 0 mm 2 mps 756 mmHg 68%
07:00 -8°C° 0 mm 2 mps 756 mmHg 69%
08:00 -7°C° 0 mm 2 mps 755 mmHg 69%
09:00 -6°C° 0 mm 2 mps 755 mmHg 69%
10:00 -6°C° 0 mm 3 mps 755 mmHg 67%
11:00 -4°C° 0 mm 3 mps 755 mmHg 66%
12:00 -2°C° 0 mm 4 mps 754 mmHg 64%
13:00 -1°C° 0 mm 3 mps 754 mmHg 66%
14:00 -1°C° 0 mm 3 mps 754 mmHg 69%
15:00 -1°C° 0 mm 2 mps 753 mmHg 71%
16:00 -2°C° 0 mm 2 mps 753 mmHg 73%
17:00 -3°C° 0 mm 2 mps 753 mmHg 75%
18:00 -4°C° 0 mm 2 mps 753 mmHg 77%
19:00 -4°C° 0 mm 2 mps 753 mmHg 79%
20:00 -5°C° 0 mm 2 mps 753 mmHg 81%
21:00 -5°C° 0 mm 2 mps 753 mmHg 84%
22:00 -5°C° 0 mm 2 mps 753 mmHg 84%
23:00 -6°C° 0 mm 2 mps 753 mmHg 84%

11 December, Friday

Time Temperature Precipitation Wind Pressure Humidity
00:00 -4°C° 0 mm 1 mps 753 mmHg 84%
01:00 -4°C° 0 mm 1 mps 753 mmHg 84%
02:00 -6°C° 0 mm 1 mps 753 mmHg 85%
03:00 -6°C° 0 mm 1 mps 753 mmHg 86%
04:00 -7°C° 0 mm 1 mps 753 mmHg 85%
05:00 -7°C° 0 mm 1 mps 753 mmHg 85%
06:00 -8°C° 0 mm 1 mps 753 mmHg 85%
07:00 -8°C° 0 mm 1 mps 754 mmHg 84%
08:00 -8°C° 0 mm 1 mps 754 mmHg 83%
09:00 -7°C° 0 mm 0 mps 754 mmHg 81%
10:00 -7°C° 0 mm 1 mps 754 mmHg 76%
11:00 -6°C° 0 mm 1 mps 754 mmHg 72%
12:00 -7°C° 0 mm 2 mps 754 mmHg 67%
13:00 -7°C° 0 mm 2 mps 754 mmHg 68%
14:00 -7°C° 0 mm 2 mps 754 mmHg 70%
15:00 -6°C° 0 mm 1 mps 754 mmHg 72%
16:00 -7°C° 0 mm 1 mps 755 mmHg 75%
17:00 -8°C° 0 mm 1 mps 755 mmHg 79%
18:00 -9°C° 0 mm 1 mps 756 mmHg 83%
19:00 -9°C° 0 mm 1 mps 756 mmHg 83%
20:00 -9°C° 0 mm 1 mps 757 mmHg 84%
21:00 -10°C° 0 mm 0 mps 757 mmHg 84%
22:00 -10°C° 0 mm 1 mps 757 mmHg 84%
23:00 -10°C° 0 mm 1 mps 757 mmHg 84%
Show more

We Need Your Consent

Meteoprog and our Service Providers may store and access personal data such as cookies, device identifiers or other similar technologies on your device and process such data to personalise content and ads, as well as provide social media features and to analyse the traffic.

  • Store and/or access information on your device

    Cookies, device identifiers or other information can be stored or accessed on your device for the purposes indicated above.

  • Personalised ads and content, ad and content measurement, audience insights, and products development

    Ads and content can be personalised based on a profile. More data can be added to better personalise ads and content. Ad and content performance can be measured. Insights about the audience who saw the ads and content can be derived. Such data can be used to develop or improve user’s experience, systems and software.

By clicking ‘I Agree’ you will allow the use of indicated cookies, device identifiers, web beacons or other similar technologies. Your settings can be changed in the browser on your device.

For certain purposes, legitimate interests may be relied on, rather than consent. You can read more about this in our Privacy and Cookie Policy.